Powrót do katalogu

OPS 8364

DMSP 4

AktywnyPogodaSSO
NORAD 6787·PAYLOAD·🇺🇸 United States

Wystrzelony Aug 17, 1973 z Vandenberg Space Force Base

Loading…

Następne Przeloty (najbliższe 24 godziny)

TLE

ŚwieżeSource: Space-Track

Epoka: Sep 14, 2026, 01:22 UTC

1 06787U 73054A   26257.05758418  .00000156  00000-0  71733-4 0  9994
2 06787  98.5510 123.8065 0026411 130.1252 230.2253 14.33731616764505

Śledź OPS 8364 w czasie rzeczywistym z AllMySat

Download on the App Store